Year,Month,Day,Hour,Minute,Value (Times are PST for windgust in km/hr)
2020,01,12,00,00,12.90
2020,01,12,00,01,19.30
2020,01,12,00,02,17.70
2020,01,12,00,03,16.10
2020,01,12,00,04,12.90
2020,01,12,00,05,11.30
2020,01,12,00,06,17.70
2020,01,12,00,07,19.30
2020,01,12,00,08,12.90
2020,01,12,00,09,14.50
2020,01,12,00,10,16.10
2020,01,12,00,11,16.10
2020,01,12,00,12,16.10
2020,01,12,00,13,12.90
2020,01,12,00,14,12.90
2020,01,12,00,15,11.30
2020,01,12,00,16,9.60
2020,01,12,00,17,9.60
2020,01,12,00,18,17.70
2020,01,12,00,19,12.90
2020,01,12,00,20,17.70
2020,01,12,00,21,12.90
2020,01,12,00,22,14.50
2020,01,12,00,23,11.30
2020,01,12,00,24,12.90
2020,01,12,00,25,14.50
2020,01,12,00,26,14.50
2020,01,12,00,27,19.30
2020,01,12,00,28,12.90
2020,01,12,00,29,11.30
2020,01,12,00,30,12.90
2020,01,12,00,31,19.30
2020,01,12,00,32,12.90
2020,01,12,00,33,12.90
2020,01,12,00,34,9.60
2020,01,12,00,35,14.50
2020,01,12,00,36,14.50
2020,01,12,00,37,14.50
2020,01,12,00,38,12.90
2020,01,12,00,39,12.90
2020,01,12,00,40,16.10
2020,01,12,00,41,12.90
2020,01,12,00,42,17.70
2020,01,12,00,43,17.70
2020,01,12,00,44,19.30
2020,01,12,00,45,14.50
2020,01,12,00,46,16.10
2020,01,12,00,47,16.10
2020,01,12,00,48,19.30
2020,01,12,00,49,14.50
2020,01,12,00,50,12.90
2020,01,12,00,51,16.10
2020,01,12,00,52,12.90
2020,01,12,00,53,14.50
2020,01,12,00,54,16.10
2020,01,12,00,55,12.90
2020,01,12,00,56,9.60
2020,01,12,00,57,11.30
2020,01,12,00,58,14.50
2020,01,12,00,59,12.90
2020,01,12,01,00,20.90
2020,01,12,01,01,17.70
2020,01,12,01,02,11.30
2020,01,12,01,03,17.70
2020,01,12,01,04,20.90
2020,01,12,01,05,16.10
2020,01,12,01,06,14.50
2020,01,12,01,07,16.10
2020,01,12,01,08,17.70
2020,01,12,01,09,16.10
2020,01,12,01,10,16.10
2020,01,12,01,11,12.90
2020,01,12,01,12,17.70
2020,01,12,01,13,19.30
2020,01,12,01,14,14.50
2020,01,12,01,15,17.70
2020,01,12,01,16,14.50
2020,01,12,01,17,19.30
2020,01,12,01,18,17.70
2020,01,12,01,19,16.10
2020,01,12,01,20,12.90
2020,01,12,01,21,16.10
2020,01,12,01,22,12.90
2020,01,12,01,23,9.60
2020,01,12,01,24,16.10
2020,01,12,01,25,16.10
2020,01,12,01,26,12.90
2020,01,12,01,27,12.90
2020,01,12,01,28,14.50
2020,01,12,01,29,20.90
2020,01,12,01,30,19.30
2020,01,12,01,31,19.30
2020,01,12,01,32,20.90
2020,01,12,01,33,19.30
2020,01,12,01,34,20.90
2020,01,12,01,35,19.30
2020,01,12,01,36,24.20
2020,01,12,01,37,24.20
2020,01,12,01,38,22.50
2020,01,12,01,39,30.60
2020,01,12,01,40,22.50
2020,01,12,01,41,27.40
2020,01,12,01,42,22.50
2020,01,12,01,43,17.70
2020,01,12,01,44,22.50
2020,01,12,01,45,19.30
2020,01,12,01,46,17.70
2020,01,12,01,47,16.10
2020,01,12,01,48,22.50
2020,01,12,01,49,25.70
2020,01,12,01,50,30.60
2020,01,12,01,51,22.50
2020,01,12,01,52,29.00
2020,01,12,01,53,29.00
2020,01,12,01,54,25.70
2020,01,12,01,55,32.20
2020,01,12,01,56,25.70
2020,01,12,01,57,25.70
2020,01,12,01,58,22.50
2020,01,12,01,59,22.50
2020,01,12,02,00,20.90
2020,01,12,02,01,22.50
2020,01,12,02,02,19.30
2020,01,12,02,03,16.10
2020,01,12,02,04,20.90
2020,01,12,02,05,24.20
2020,01,12,02,06,29.00
2020,01,12,02,07,25.70
2020,01,12,02,08,33.80
2020,01,12,02,09,30.60
2020,01,12,02,10,29.00
2020,01,12,02,11,27.40
2020,01,12,02,12,24.20
2020,01,12,02,13,27.40
2020,01,12,02,14,22.50
2020,01,12,02,15,16.10
2020,01,12,02,16,17.70
2020,01,12,02,17,24.20
2020,01,12,02,18,24.20
2020,01,12,02,19,25.70
2020,01,12,02,20,24.20
2020,01,12,02,21,19.30
2020,01,12,02,22,29.00
2020,01,12,02,23,22.50
2020,01,12,02,24,19.30
2020,01,12,02,25,19.30
2020,01,12,02,26,16.10
2020,01,12,02,27,19.30
2020,01,12,02,28,22.50
2020,01,12,02,29,19.30
2020,01,12,02,30,14.50
2020,01,12,02,31,19.30
2020,01,12,02,32,19.30
2020,01,12,02,33,14.50
2020,01,12,02,34,14.50
2020,01,12,02,35,12.90
2020,01,12,02,36,16.10
2020,01,12,02,37,16.10
2020,01,12,02,38,16.10
2020,01,12,02,39,14.50
2020,01,12,02,40,11.30
2020,01,12,02,41,11.30
2020,01,12,02,42,19.30
2020,01,12,02,43,19.30
2020,01,12,02,44,14.50
2020,01,12,02,45,14.50
2020,01,12,02,46,20.90
2020,01,12,02,47,24.20
2020,01,12,02,48,19.30
2020,01,12,02,49,20.90
2020,01,12,02,50,19.30
2020,01,12,02,51,17.70
2020,01,12,02,52,19.30
2020,01,12,02,53,17.70
2020,01,12,02,54,14.50
2020,01,12,02,55,11.30
2020,01,12,02,56,14.50
2020,01,12,02,57,14.50
2020,01,12,02,58,11.30
2020,01,12,02,59,11.30
2020,01,12,03,00,12.90
2020,01,12,03,01,17.70
2020,01,12,03,02,12.90
2020,01,12,03,03,17.70
2020,01,12,03,04,16.10
2020,01,12,03,05,19.30
2020,01,12,03,06,17.70
2020,01,12,03,07,19.30
2020,01,12,03,08,19.30
2020,01,12,03,09,19.30
2020,01,12,03,10,22.50
2020,01,12,03,11,22.50
2020,01,12,03,12,16.10
2020,01,12,03,13,20.90
2020,01,12,03,14,17.70
2020,01,12,03,15,17.70
2020,01,12,03,16,19.30
2020,01,12,03,17,14.50
2020,01,12,03,18,16.10
2020,01,12,03,19,11.30
2020,01,12,03,20,16.10
2020,01,12,03,21,19.30
2020,01,12,03,22,14.50
2020,01,12,03,23,12.90
2020,01,12,03,24,14.50
2020,01,12,03,25,14.50
2020,01,12,03,26,17.70
2020,01,12,03,27,14.50
2020,01,12,03,28,19.30
2020,01,12,03,29,16.10
2020,01,12,03,30,14.50
2020,01,12,03,31,9.60
2020,01,12,03,32,12.90
2020,01,12,03,33,12.90
2020,01,12,03,34,17.70
2020,01,12,03,35,17.70
2020,01,12,03,36,16.10
2020,01,12,03,37,16.10
2020,01,12,03,38,14.50
2020,01,12,03,39,16.10
2020,01,12,03,40,16.10
2020,01,12,03,41,16.10
2020,01,12,03,42,14.50
2020,01,12,03,43,17.70
2020,01,12,03,44,8.10
2020,01,12,03,45,9.60
2020,01,12,03,46,16.10
2020,01,12,03,47,17.70
2020,01,12,03,48,14.50
2020,01,12,03,49,11.30
2020,01,12,03,50,12.90
2020,01,12,03,51,17.70
2020,01,12,03,52,17.70
2020,01,12,03,53,14.50
2020,01,12,03,54,17.70
2020,01,12,03,55,16.10
2020,01,12,03,56,12.90
2020,01,12,03,57,14.50
2020,01,12,03,58,12.90
2020,01,12,03,59,14.50
2020,01,12,04,00,20.90
2020,01,12,04,01,24.20
2020,01,12,04,02,27.40
2020,01,12,04,03,24.20
2020,01,12,04,04,17.70
2020,01,12,04,05,16.10
2020,01,12,04,06,12.90
2020,01,12,04,07,17.70
2020,01,12,04,08,11.30
2020,01,12,04,09,12.90
2020,01,12,04,10,9.60
2020,01,12,04,11,11.30
2020,01,12,04,12,6.40
2020,01,12,04,13,8.10
2020,01,12,04,14,8.10
2020,01,12,04,15,14.50
2020,01,12,04,16,14.50
2020,01,12,04,17,9.60
2020,01,12,04,18,8.10
2020,01,12,04,19,3.20
2020,01,12,04,20,4.80
2020,01,12,04,21,11.30
2020,01,12,04,22,12.90
2020,01,12,04,23,9.60
2020,01,12,04,24,16.10
2020,01,12,04,25,17.70
2020,01,12,04,26,20.90
2020,01,12,04,27,12.90
2020,01,12,04,28,12.90
2020,01,12,04,29,12.90
2020,01,12,04,30,14.50
2020,01,12,04,31,8.10
2020,01,12,04,32,11.30
2020,01,12,04,33,8.10
2020,01,12,04,34,11.30
2020,01,12,04,35,12.90
2020,01,12,04,36,11.30
2020,01,12,04,37,8.10
2020,01,12,04,38,4.80
2020,01,12,04,39,9.60
2020,01,12,04,40,6.40
2020,01,12,04,41,4.80
2020,01,12,04,42,6.40
2020,01,12,04,43,9.60
2020,01,12,04,44,11.30
2020,01,12,04,45,8.10
2020,01,12,04,46,8.10
2020,01,12,04,47,11.30
2020,01,12,04,48,6.40
2020,01,12,04,49,14.50
2020,01,12,04,50,8.10
2020,01,12,04,51,12.90
2020,01,12,04,52,16.10
2020,01,12,04,53,12.90
2020,01,12,04,54,12.90
2020,01,12,04,55,11.30
2020,01,12,04,56,12.90
2020,01,12,04,57,14.50
2020,01,12,04,58,14.50
2020,01,12,04,59,12.90
2020,01,12,05,00,12.90
2020,01,12,05,01,11.30
2020,01,12,05,02,12.90
2020,01,12,05,03,12.90
2020,01,12,05,04,12.90
2020,01,12,05,05,14.50
2020,01,12,05,06,12.90
2020,01,12,05,07,11.30
2020,01,12,05,08,14.50
2020,01,12,05,09,14.50
2020,01,12,05,10,14.50
2020,01,12,05,11,11.30
2020,01,12,05,12,16.10
2020,01,12,05,13,16.10
2020,01,12,05,14,16.10
2020,01,12,05,15,14.50
2020,01,12,05,16,11.30
2020,01,12,05,17,12.90
2020,01,12,05,18,12.90
2020,01,12,05,19,16.10
2020,01,12,05,20,17.70
2020,01,12,05,21,16.10
2020,01,12,05,22,17.70
2020,01,12,05,23,14.50
2020,01,12,05,24,17.70
2020,01,12,05,25,16.10
2020,01,12,05,26,16.10
2020,01,12,05,27,14.50
2020,01,12,05,28,17.70
2020,01,12,05,29,17.70
2020,01,12,05,30,14.50
2020,01,12,05,31,16.10
2020,01,12,05,32,14.50
2020,01,12,05,33,14.50
2020,01,12,05,34,16.10
2020,01,12,05,35,14.50
2020,01,12,05,36,9.60
2020,01,12,05,37,11.30
2020,01,12,05,38,12.90
2020,01,12,05,39,9.60
2020,01,12,05,40,11.30
2020,01,12,05,41,11.30
2020,01,12,05,42,12.90
2020,01,12,05,43,9.60
2020,01,12,05,44,6.40
2020,01,12,05,45,8.10
2020,01,12,05,46,9.60
2020,01,12,05,47,1.60
2020,01,12,05,48,6.40
2020,01,12,05,49,9.60
2020,01,12,05,50,11.30
2020,01,12,05,51,9.60
2020,01,12,05,52,6.40
2020,01,12,05,53,9.60
2020,01,12,05,54,11.30
2020,01,12,05,55,11.30
2020,01,12,05,56,12.90
2020,01,12,05,57,12.90
2020,01,12,05,58,14.50
2020,01,12,05,59,9.60
2020,01,12,06,00,12.90
2020,01,12,06,01,11.30
2020,01,12,06,02,9.60
2020,01,12,06,03,11.30
2020,01,12,06,04,9.60
2020,01,12,06,05,12.90
2020,01,12,06,06,11.30
2020,01,12,06,07,9.60
2020,01,12,06,08,11.30
2020,01,12,06,09,9.60
2020,01,12,06,10,11.30
2020,01,12,06,11,14.50
2020,01,12,06,12,9.60
2020,01,12,06,13,11.30
2020,01,12,06,14,11.30
2020,01,12,06,15,11.30
2020,01,12,06,16,9.60
2020,01,12,06,17,8.10
2020,01,12,06,18,8.10
2020,01,12,06,19,6.40
2020,01,12,06,20,8.10
2020,01,12,06,21,8.10
2020,01,12,06,22,9.60
2020,01,12,06,23,9.60
2020,01,12,06,24,8.10
2020,01,12,06,25,9.60
2020,01,12,06,26,11.30
2020,01,12,06,27,12.90
2020,01,12,06,28,1.60
2020,01,12,06,29,1.60
2020,01,12,06,30,6.40
2020,01,12,06,31,6.40
2020,01,12,06,32,9.60
2020,01,12,06,33,8.10
2020,01,12,06,34,8.10
2020,01,12,06,35,9.60
2020,01,12,06,36,6.40
2020,01,12,06,37,9.60
2020,01,12,06,38,9.60
2020,01,12,06,39,9.60
2020,01,12,06,40,6.40
2020,01,12,06,41,6.40
2020,01,12,06,42,9.60
2020,01,12,06,43,9.60
2020,01,12,06,44,8.10
2020,01,12,06,45,6.40
2020,01,12,06,46,3.20
2020,01,12,06,47,3.20
2020,01,12,06,48,3.20
2020,01,12,06,49,11.30
2020,01,12,06,50,9.60
2020,01,12,06,51,3.20
2020,01,12,06,52,3.20
2020,01,12,06,53,1.60
2020,01,12,06,55,3.20
2020,01,12,06,56,6.40
2020,01,12,06,57,1.60
2020,01,12,06,58,3.20
2020,01,12,06,59,6.40
2020,01,12,07,00,3.20
2020,01,12,07,01,3.20
2020,01,12,07,02,6.40
2020,01,12,07,03,6.40
2020,01,12,07,04,8.10
2020,01,12,07,05,6.40
2020,01,12,07,06,6.40
2020,01,12,07,07,6.40
2020,01,12,07,08,9.60
2020,01,12,07,09,8.10
2020,01,12,07,10,6.40
2020,01,12,07,11,1.60
2020,01,12,07,12,1.60
2020,01,12,07,13,1.60
2020,01,12,07,15,3.20
2020,01,12,07,32,1.60
2020,01,12,07,33,3.20
2020,01,12,07,34,6.40
2020,01,12,07,35,6.40
2020,01,12,07,36,3.20
2020,01,12,07,37,3.20
2020,01,12,07,38,3.20
2020,01,12,07,40,3.20
2020,01,12,07,41,3.20
2020,01,12,07,42,3.20
2020,01,12,07,43,1.60
2020,01,12,07,44,3.20
2020,01,12,07,45,3.20
2020,01,12,07,46,3.20
2020,01,12,07,47,3.20
2020,01,12,07,48,3.20
2020,01,12,07,49,3.20
2020,01,12,07,51,1.60
2020,01,12,07,52,3.20
2020,01,12,07,53,6.40
2020,01,12,07,54,6.40
2020,01,12,07,55,6.40
2020,01,12,07,56,4.80
2020,01,12,07,57,4.80
2020,01,12,07,58,3.20
2020,01,12,07,59,1.60
2020,01,12,08,00,1.60
2020,01,12,08,01,3.20
2020,01,12,08,02,3.20
2020,01,12,08,03,3.20
2020,01,12,08,04,3.20
2020,01,12,08,05,1.60
2020,01,12,08,06,1.60
2020,01,12,08,07,3.20
2020,01,12,08,08,3.20
2020,01,12,08,09,1.60
2020,01,12,08,10,1.60
2020,01,12,08,11,4.80
2020,01,12,08,12,3.20
2020,01,12,08,13,3.20
2020,01,12,08,14,4.80
2020,01,12,08,15,4.80
2020,01,12,08,16,3.20
2020,01,12,08,17,3.20
2020,01,12,08,18,4.80
2020,01,12,08,19,3.20
2020,01,12,08,20,1.60
2020,01,12,08,39,3.20
2020,01,12,08,40,3.20
2020,01,12,08,41,3.20
2020,01,12,08,42,3.20
2020,01,12,08,43,3.20
2020,01,12,08,44,1.60
2020,01,12,08,45,3.20
2020,01,12,08,46,3.20
2020,01,12,08,47,3.20
2020,01,12,08,48,1.60
2020,01,12,08,49,1.60
2020,01,12,09,10,3.20
2020,01,12,09,11,4.80
2020,01,12,09,12,4.80
2020,01,12,09,13,6.40
2020,01,12,09,14,4.80
2020,01,12,09,15,4.80
2020,01,12,09,16,3.20
2020,01,12,09,17,1.60
2020,01,12,09,18,3.20
2020,01,12,09,19,3.20
2020,01,12,09,20,1.60
2020,01,12,09,24,11.30
2020,01,12,09,25,8.10
2020,01,12,09,26,4.80
2020,01,12,09,27,3.20
2020,01,12,09,28,3.20
2020,01,12,09,29,3.20
2020,01,12,09,30,1.60
2020,01,12,09,31,6.40
2020,01,12,09,32,4.80
2020,01,12,09,33,8.10
2020,01,12,09,34,11.30
2020,01,12,09,35,4.80
2020,01,12,09,36,8.10
2020,01,12,09,37,8.10
2020,01,12,09,38,11.30
2020,01,12,09,39,6.40
2020,01,12,09,40,8.10
2020,01,12,09,41,8.10
2020,01,12,09,42,3.20
2020,01,12,09,45,3.20
2020,01,12,09,46,3.20
2020,01,12,09,47,1.60
2020,01,12,09,48,3.20
2020,01,12,09,49,6.40
2020,01,12,09,50,1.60
2020,01,12,09,51,4.80
2020,01,12,09,52,1.60
2020,01,12,09,53,4.80
2020,01,12,09,54,1.60
2020,01,12,09,57,1.60
2020,01,12,10,00,3.20
2020,01,12,10,01,3.20
2020,01,12,10,02,3.20
2020,01,12,10,03,3.20
2020,01,12,10,04,3.20
2020,01,12,10,05,6.40
2020,01,12,10,06,9.60
2020,01,12,10,07,11.30
2020,01,12,10,08,3.20
2020,01,12,10,09,6.40
2020,01,12,10,10,1.60
2020,01,12,10,12,3.20
2020,01,12,10,13,1.60
2020,01,12,10,16,1.60
2020,01,12,10,17,3.20
2020,01,12,10,18,1.60
2020,01,12,10,20,8.10
2020,01,12,10,21,12.90
2020,01,12,10,22,17.70
2020,01,12,10,23,12.90
2020,01,12,10,24,12.90
2020,01,12,10,25,9.60
2020,01,12,10,26,8.10
2020,01,12,10,27,6.40
2020,01,12,10,28,8.10
2020,01,12,10,29,8.10
2020,01,12,10,30,6.40
2020,01,12,10,31,3.20
2020,01,12,10,32,6.40
2020,01,12,10,33,11.30
2020,01,12,10,34,17.70
2020,01,12,10,35,17.70
2020,01,12,10,36,14.50
2020,01,12,10,37,14.50
2020,01,12,10,38,12.90
2020,01,12,10,39,14.50
2020,01,12,10,40,9.60
2020,01,12,10,41,12.90
2020,01,12,10,42,25.70
2020,01,12,10,43,12.90
2020,01,12,10,44,20.90
2020,01,12,10,45,16.10
2020,01,12,10,46,19.30
2020,01,12,10,47,12.90
2020,01,12,10,48,11.30
2020,01,12,10,49,17.70
2020,01,12,10,50,12.90
2020,01,12,10,51,14.50
2020,01,12,10,52,17.70
2020,01,12,10,53,20.90
2020,01,12,10,54,20.90
2020,01,12,10,55,22.50
2020,01,12,10,56,24.20
2020,01,12,10,57,30.60
2020,01,12,10,58,17.70
2020,01,12,10,59,24.20
2020,01,12,11,00,35.40
2020,01,12,11,01,22.50
2020,01,12,11,02,35.40
2020,01,12,11,03,29.00
2020,01,12,11,04,37.00
2020,01,12,11,05,29.00
2020,01,12,11,06,33.80
2020,01,12,11,07,29.00
2020,01,12,11,08,27.40
2020,01,12,11,09,22.50
2020,01,12,11,10,35.40
2020,01,12,11,11,37.00
2020,01,12,11,12,25.70
2020,01,12,11,13,19.30
2020,01,12,11,14,24.20
2020,01,12,11,15,24.20
2020,01,12,11,16,17.70
2020,01,12,11,17,22.50
2020,01,12,11,18,19.30
2020,01,12,11,19,24.20
2020,01,12,11,20,17.70
2020,01,12,11,21,29.00
2020,01,12,11,22,22.50
2020,01,12,11,23,30.60
2020,01,12,11,24,30.60
2020,01,12,11,25,35.40
2020,01,12,11,26,29.00
2020,01,12,11,27,22.50
2020,01,12,11,28,20.90
2020,01,12,11,29,17.70
2020,01,12,11,30,29.00
2020,01,12,11,31,24.20
2020,01,12,11,32,32.20
2020,01,12,11,33,17.70
2020,01,12,11,34,25.70
2020,01,12,11,35,20.90
2020,01,12,11,36,19.30
2020,01,12,11,37,24.20
2020,01,12,11,38,33.80
2020,01,12,11,39,25.70
2020,01,12,11,40,24.20
2020,01,12,11,41,19.30
2020,01,12,11,42,32.20
2020,01,12,11,43,32.20
2020,01,12,11,44,35.40
2020,01,12,11,45,32.20
2020,01,12,11,46,25.70
2020,01,12,11,47,19.30
2020,01,12,11,48,29.00
2020,01,12,11,49,30.60
2020,01,12,11,50,27.40
2020,01,12,11,51,25.70
2020,01,12,11,52,22.50
2020,01,12,11,53,25.70
2020,01,12,11,54,32.20
2020,01,12,11,55,19.30
2020,01,12,11,56,19.30
2020,01,12,11,57,19.30
2020,01,12,11,58,24.20
2020,01,12,11,59,24.20
2020,01,12,12,00,14.50
2020,01,12,12,01,20.90
2020,01,12,12,02,20.90
2020,01,12,12,03,9.60
2020,01,12,12,04,22.50
2020,01,12,12,05,19.30
2020,01,12,12,06,17.70
2020,01,12,12,07,14.50
2020,01,12,12,08,19.30
2020,01,12,12,09,24.20
2020,01,12,12,10,25.70
2020,01,12,12,11,19.30
2020,01,12,12,12,25.70
2020,01,12,12,13,22.50
2020,01,12,12,14,33.80
2020,01,12,12,15,29.00
2020,01,12,12,16,24.20
2020,01,12,12,17,20.90
2020,01,12,12,18,22.50
2020,01,12,12,19,24.20
2020,01,12,12,20,12.90
2020,01,12,12,21,27.40
2020,01,12,12,22,22.50
2020,01,12,12,23,27.40
2020,01,12,12,24,19.30
2020,01,12,12,25,24.20
2020,01,12,12,26,27.40
2020,01,12,12,27,25.70
2020,01,12,12,28,32.20
2020,01,12,12,29,19.30
2020,01,12,12,30,35.40
2020,01,12,12,31,20.90
2020,01,12,12,32,24.20
2020,01,12,12,33,24.20
2020,01,12,12,34,20.90
2020,01,12,12,35,24.20
2020,01,12,12,36,32.20
2020,01,12,12,37,22.50
2020,01,12,12,38,22.50
2020,01,12,12,39,29.00
2020,01,12,12,40,22.50
2020,01,12,12,41,30.60
2020,01,12,12,42,19.30
2020,01,12,12,43,24.20
2020,01,12,12,44,30.60
2020,01,12,12,45,30.60
2020,01,12,12,46,27.40
2020,01,12,12,47,27.40
2020,01,12,12,48,29.00
2020,01,12,12,49,33.80
2020,01,12,12,50,33.80
2020,01,12,12,51,32.20
2020,01,12,12,52,20.90
2020,01,12,12,53,20.90
2020,01,12,12,54,29.00
2020,01,12,12,55,29.00
2020,01,12,12,56,20.90
2020,01,12,12,57,29.00
2020,01,12,12,58,33.80
2020,01,12,12,59,29.00
2020,01,12,13,00,20.90
2020,01,12,13,01,29.00
2020,01,12,13,02,29.00
2020,01,12,13,03,25.70
2020,01,12,13,04,25.70
2020,01,12,13,05,20.90
2020,01,12,13,06,29.00
2020,01,12,13,07,32.20
2020,01,12,13,08,29.00
2020,01,12,13,09,29.00
2020,01,12,13,10,19.30
2020,01,12,13,11,17.70
2020,01,12,13,12,20.90
2020,01,12,13,13,29.00
2020,01,12,13,14,20.90
2020,01,12,13,15,20.90
2020,01,12,13,16,22.50
2020,01,12,13,17,25.70
2020,01,12,13,18,22.50
2020,01,12,13,19,22.50
2020,01,12,13,20,20.90
2020,01,12,13,21,22.50
2020,01,12,13,22,25.70
2020,01,12,13,23,24.20
2020,01,12,13,24,25.70
2020,01,12,13,25,16.10
2020,01,12,13,26,17.70
2020,01,12,13,27,22.50
2020,01,12,13,28,20.90
2020,01,12,13,29,22.50
2020,01,12,13,30,22.50
2020,01,12,13,31,29.00
2020,01,12,13,32,32.20
2020,01,12,13,33,20.90
2020,01,12,13,34,22.50
2020,01,12,13,35,22.50
2020,01,12,13,36,22.50
2020,01,12,13,37,37.00
2020,01,12,13,38,20.90
2020,01,12,13,39,29.00
2020,01,12,13,40,29.00
2020,01,12,13,41,29.00
2020,01,12,13,42,29.00
2020,01,12,13,43,45.10
2020,01,12,13,44,27.40
2020,01,12,13,45,20.90
2020,01,12,13,46,53.10
2020,01,12,13,47,20.90
2020,01,12,13,48,37.00
2020,01,12,13,49,22.50
2020,01,12,13,50,29.00
2020,01,12,13,51,19.30
2020,01,12,13,52,19.30
2020,01,12,13,53,22.50
2020,01,12,13,54,29.00
2020,01,12,13,55,25.70
2020,01,12,13,56,30.60
2020,01,12,13,57,30.60
2020,01,12,13,58,29.00
2020,01,12,13,59,22.50
2020,01,12,14,00,27.40
2020,01,12,14,01,33.80
2020,01,12,14,02,37.00
2020,01,12,14,03,29.00
2020,01,12,14,04,32.20
2020,01,12,14,05,22.50
2020,01,12,14,06,17.70
2020,01,12,14,07,27.40
2020,01,12,14,08,30.60
2020,01,12,14,09,30.60
2020,01,12,14,10,29.00
2020,01,12,14,11,30.60
2020,01,12,14,12,29.00
2020,01,12,14,13,24.20
2020,01,12,14,14,22.50
2020,01,12,14,15,22.50
2020,01,12,14,16,25.70
2020,01,12,14,17,43.50
2020,01,12,14,18,35.40
2020,01,12,14,19,37.00
2020,01,12,14,20,33.80
2020,01,12,14,21,30.60
2020,01,12,14,22,29.00
2020,01,12,14,23,48.30
2020,01,12,14,24,35.40
2020,01,12,14,25,29.00
2020,01,12,14,26,29.00
2020,01,12,14,27,27.40
2020,01,12,14,28,25.70
2020,01,12,14,29,25.70
2020,01,12,14,30,33.80
2020,01,12,14,31,30.60
2020,01,12,14,32,27.40
2020,01,12,14,33,38.60
2020,01,12,14,34,30.60
2020,01,12,14,35,29.00
2020,01,12,14,36,33.80
2020,01,12,14,37,30.60
2020,01,12,14,38,32.20
2020,01,12,14,39,25.70
2020,01,12,14,40,22.50
2020,01,12,14,41,38.60
2020,01,12,14,42,37.00
2020,01,12,14,43,37.00
2020,01,12,14,44,37.00
2020,01,12,14,45,32.20
2020,01,12,14,46,32.20
2020,01,12,14,47,37.00
2020,01,12,14,48,30.60
2020,01,12,14,49,30.60
2020,01,12,14,50,35.40
2020,01,12,14,51,37.00
2020,01,12,14,52,24.20
2020,01,12,14,53,30.60
2020,01,12,14,54,35.40
2020,01,12,14,55,24.20
2020,01,12,14,56,32.20
2020,01,12,14,57,30.60
2020,01,12,14,58,20.90
2020,01,12,14,59,17.70
2020,01,12,15,00,24.20
2020,01,12,15,01,32.20
2020,01,12,15,02,33.80
2020,01,12,15,03,32.20
2020,01,12,15,04,32.20
2020,01,12,15,05,25.70
2020,01,12,15,06,24.20
2020,01,12,15,07,35.40
2020,01,12,15,08,37.00
2020,01,12,15,09,24.20
2020,01,12,15,10,40.20
2020,01,12,15,11,32.20
2020,01,12,15,12,32.20
2020,01,12,15,13,25.70
2020,01,12,15,14,35.40
2020,01,12,15,15,29.00
2020,01,12,15,16,30.60
2020,01,12,15,17,33.80
2020,01,12,15,18,29.00
2020,01,12,15,19,20.90
2020,01,12,15,20,27.40
2020,01,12,15,21,24.20
2020,01,12,15,22,29.00
2020,01,12,15,23,20.90
2020,01,12,15,24,25.70
2020,01,12,15,25,29.00
2020,01,12,15,26,29.00
2020,01,12,15,27,33.80
2020,01,12,15,28,30.60
2020,01,12,15,29,29.00
2020,01,12,15,30,30.60
2020,01,12,15,31,38.60
2020,01,12,15,32,33.80
2020,01,12,15,33,32.20
2020,01,12,15,34,25.70
2020,01,12,15,35,41.80
2020,01,12,15,36,37.00
2020,01,12,15,37,37.00
2020,01,12,15,38,33.80
2020,01,12,15,39,32.20
2020,01,12,15,40,35.40
2020,01,12,15,41,29.00
2020,01,12,15,42,32.20
2020,01,12,15,43,33.80
2020,01,12,15,44,24.20
2020,01,12,15,45,43.50
2020,01,12,15,46,40.20
2020,01,12,15,47,25.70
2020,01,12,15,48,35.40
2020,01,12,15,49,30.60
2020,01,12,15,50,29.00
2020,01,12,15,51,27.40
2020,01,12,15,52,29.00
2020,01,12,15,53,24.20
2020,01,12,15,54,19.30
2020,01,12,15,55,29.00
2020,01,12,15,56,40.20
2020,01,12,15,57,29.00
2020,01,12,15,58,30.60
2020,01,12,15,59,38.60
2020,01,12,16,00,27.40
2020,01,12,16,01,37.00
2020,01,12,16,02,35.40
2020,01,12,16,03,37.00
2020,01,12,16,04,24.20
2020,01,12,16,05,32.20
2020,01,12,16,06,33.80
2020,01,12,16,07,30.60
2020,01,12,16,08,40.20
2020,01,12,16,09,30.60
2020,01,12,16,10,29.00
2020,01,12,16,11,29.00
2020,01,12,16,12,29.00
2020,01,12,16,13,30.60
2020,01,12,16,14,38.60
2020,01,12,16,15,29.00
2020,01,12,16,16,32.20
2020,01,12,16,17,33.80
2020,01,12,16,18,32.20
2020,01,12,16,19,24.20
2020,01,12,16,20,30.60
2020,01,12,16,21,32.20
2020,01,12,16,22,32.20
2020,01,12,16,23,40.20
2020,01,12,16,24,37.00
2020,01,12,16,25,29.00
2020,01,12,16,26,29.00
2020,01,12,16,27,22.50
2020,01,12,16,28,24.20
2020,01,12,16,29,32.20
2020,01,12,16,30,41.80
2020,01,12,16,31,45.10
2020,01,12,16,32,24.20
2020,01,12,16,33,40.20
2020,01,12,16,34,38.60
2020,01,12,16,35,30.60
2020,01,12,16,36,37.00
2020,01,12,16,37,35.40
2020,01,12,16,38,29.00
2020,01,12,16,39,40.20
2020,01,12,16,40,51.50
2020,01,12,16,41,33.80
2020,01,12,16,42,33.80
2020,01,12,16,43,37.00
2020,01,12,16,44,35.40
2020,01,12,16,45,35.40
2020,01,12,16,46,41.80
2020,01,12,16,47,40.20
2020,01,12,16,48,35.40
2020,01,12,16,49,38.60
2020,01,12,16,50,32.20
2020,01,12,16,51,33.80
2020,01,12,16,52,32.20
2020,01,12,16,53,25.70
2020,01,12,16,54,29.00
2020,01,12,16,55,24.20
2020,01,12,16,56,32.20
2020,01,12,16,57,33.80
2020,01,12,16,58,32.20
2020,01,12,16,59,32.20
2020,01,12,17,00,46.70
2020,01,12,17,01,48.30
2020,01,12,17,02,40.20
2020,01,12,17,03,40.20
2020,01,12,17,04,32.20
2020,01,12,17,05,43.50
2020,01,12,17,06,45.10
2020,01,12,17,07,41.80
2020,01,12,17,08,30.60
2020,01,12,17,09,40.20
2020,01,12,17,10,37.00
2020,01,12,17,11,37.00
2020,01,12,17,12,30.60
2020,01,12,17,13,40.20
2020,01,12,17,14,38.60
2020,01,12,17,15,51.50
2020,01,12,17,16,48.30
2020,01,12,17,17,49.90
2020,01,12,17,18,38.60
2020,01,12,17,19,38.60
2020,01,12,17,20,30.60
2020,01,12,17,21,32.20
2020,01,12,17,22,45.10
2020,01,12,17,23,22.50
2020,01,12,17,24,25.70
2020,01,12,17,25,53.10
2020,01,12,17,26,45.10
2020,01,12,17,27,38.60
2020,01,12,17,28,32.20
2020,01,12,17,29,25.70
2020,01,12,17,30,35.40
2020,01,12,17,31,37.00
2020,01,12,17,32,22.50
2020,01,12,17,33,29.00
2020,01,12,17,34,41.80
2020,01,12,17,35,32.20
2020,01,12,17,36,37.00
2020,01,12,17,37,30.60
2020,01,12,17,38,37.00
2020,01,12,17,39,37.00
2020,01,12,17,40,38.60
2020,01,12,17,41,46.70
2020,01,12,17,42,46.70
2020,01,12,17,43,41.80
2020,01,12,17,44,32.20
2020,01,12,17,45,38.60
2020,01,12,17,46,38.60
2020,01,12,17,47,37.00
2020,01,12,17,48,38.60
2020,01,12,17,49,37.00
2020,01,12,17,50,33.80
2020,01,12,17,51,33.80
2020,01,12,17,52,33.80
2020,01,12,17,53,49.90
2020,01,12,17,54,48.30
2020,01,12,17,55,35.40
2020,01,12,17,56,49.90
2020,01,12,17,57,51.50
2020,01,12,17,58,40.20
2020,01,12,17,59,38.60
2020,01,12,18,00,41.80
2020,01,12,18,01,57.90
2020,01,12,18,02,46.70
2020,01,12,18,03,35.40
2020,01,12,18,04,51.50
2020,01,12,18,05,45.10
2020,01,12,18,06,38.60
2020,01,12,18,07,61.20
2020,01,12,18,08,62.70
2020,01,12,18,09,38.60
2020,01,12,18,10,33.80
2020,01,12,18,11,38.60
2020,01,12,18,12,29.00
2020,01,12,18,13,54.70
2020,01,12,18,14,33.80
2020,01,12,18,15,32.20
2020,01,12,18,16,35.40
2020,01,12,18,17,49.90
2020,01,12,18,18,45.10
2020,01,12,18,19,32.20
2020,01,12,18,20,37.00
2020,01,12,18,21,29.00
2020,01,12,18,22,29.00
2020,01,12,18,23,30.60
2020,01,12,18,24,33.80
2020,01,12,18,25,37.00
2020,01,12,18,26,24.20
2020,01,12,18,27,32.20
2020,01,12,18,28,25.70
2020,01,12,18,29,30.60
2020,01,12,18,30,43.50
2020,01,12,18,31,41.80
2020,01,12,18,32,40.20
2020,01,12,18,33,35.40
2020,01,12,18,34,22.50
2020,01,12,18,35,22.50
2020,01,12,18,36,41.80
2020,01,12,18,37,40.20
2020,01,12,18,38,33.80
2020,01,12,18,39,40.20
2020,01,12,18,40,33.80